Location: Les Chemineaux
(47.3024°N, 1.5104°E)
Time: 21:59:39
(UTC+00:00)

Cosmos 405 Rocket - Pass Details

Date: 19 May 2025
Orbit: 413 x 447 km, 81.2° (Epoch: 18 June)

Event Time Altitude Azimuth Distance (km) Brightness Sun altitude
Rises 23:11:35 0° 339° (NNW) 2,457 7.6 -22.1°
Reaches altitude 10° 23:13:49 10° 329° (NNW) 1,574 6.1 -22.2°
Enters shadow 23:16:32 29° 278° (W) 833 3.8 -22.3°
